Regional Weather Roundup
Issued by NWS

Home | Current Version | Previous Version | Text Only | Print | Product List | Glossary On
Versions: 1 2 3 4 5 6 7 8 9 10 11 12 13 14 15 16 17 18 19 20 21 22 23 24 25 26 27 28 29 30 31 32 33 34 35 36 37 38 39 40 41 42 43 44 45 46 47 48 49 50
000
ASUS43 KMKX 031500
RWRWI

WISCONSIN REGIONAL WEATHER ROUNDUP
NATIONAL WEATHER SERVICE MILWAUKEE/SULLIVAN WI
1000 AM CDT SUN MAY 03 2015

NOTE: "FAIR" INDICATES FEW OR NO CLOUDS BELOW 12,000 FEET WITH NO
SIGNIFICANT WEATHER AND/OR OBSTRUCTIONS TO VISIBILITY.

WIZ001-002-006>008-014>016-023>028-031600-
NORTHWEST WISCONSIN

CITY           SKY/WX    TMP DP  RH WIND       PRES   REMARKS
SUPERIOR ARPT  SUNNY     69  55  59 SW10      29.73S
ASHLAND        MOSUNNY   70  53  54 S13       29.74F
HAYWARD        PTSUNNY   65  50  58 S14       29.77S
SIREN          MOSUNNY   65  51  60 SW9       29.78S
CUMBERLAND     PTSUNNY   63  50  63 S7        29.80R
RICE LAKE      PTSUNNY   65  50  58 SW8       29.81R
CHETEK         PTSUNNY   63  52  67 S8        29.79S
LADYSMITH      MOSUNNY   64  51  64 S8        29.82F
EAU CLAIRE     NOT AVBL
MENOMONIE      PTSUNNY   66  52  59 S10       29.80F
NEW RICHMOND   PTSUNNY   63  51  63 S10       29.80R
OSCEOLA        PTSUNNY   62  52  68 S9        29.81S
$$

WIZ003>005-009-010-017-018-031600-
NORTH CENTRAL WISCONSIN

CITY           SKY/WX    TMP DP  RH WIND       PRES   REMARKS
MANITOWISH WTR MOSUNNY   65  52  64 S8        29.79S
ARBOR VITAE    MOSUNNY   64  51  62 S10       29.79F
WOODRUFF       MOSUNNY   64  51  62 S10       29.79F
RHINELANDER    MOSUNNY   65  50  58 SW12G18   29.83F
EAGLE RIVER    SUNNY     65  48  55 SW9       29.81F
LAND O LAKES   MOSUNNY   66  50  54 S13       29.80F
PHILLIPS       MOSUNNY   63  51  64 SW10      29.80F
TOMAHAWK       PTSUNNY   64  50  61 CALM      29.84F
MEDFORD        PTSUNNY   62  50  63 SW12      29.84F
MERRILL        PTSUNNY   65  51  60 SW9       29.85F
$$

WIZ029-030-035-036-043>047-031600-
CENTRAL WISCONSIN

CITY           SKY/WX    TMP DP  RH WIND       PRES   REMARKS
WAUSAU         PTSUNNY   66  50  56 SW10      29.84F
MOSINEE        MOSUNNY   64  52  63 SW10      29.87S
MARSHFIELD     PTSUNNY   68  50  52 SW12      29.85F
STEVENS POINT  CLOUDY    65  48  54 SW8       29.87S
WAUPACA        PTSUNNY   70  51  50 S10       29.87F
WAUTOMA        NOT AVBL
WISC RAPIDS    PTSUNNY   68  47  46 S12       29.87S
CAMP DOUGLAS   NOT AVBL
$$

WIZ011>013-019>022-031-037>040-048>050-031600-
NORTHEAST WISCONSIN

CITY           SKY/WX    TMP DP  RH WIND       PRES   REMARKS
ANTIGO         CLOUDY    63  50  62 SW10      29.87S
SHAWANO        PTSUNNY   69  50  49 SW13      29.87S
OCONTO         MOSUNNY   70  51  50 SW12      29.86S
STURGEON BAY   MOSUNNY   72  48  43 S18       29.90S
GREEN BAY      PTSUNNY   69  49  48 SW15      29.88F
MANITOWOC      NOT AVBL
APPLETON       PTSUNNY   70  48  46 SW14      29.88F
CLINTONVILLE   PTSUNNY   66  48  52 SW10      29.87S
OSHKOSH        PTSUNNY   71  48  43 SW16G24   29.88F
$$

WIZ032>034-041-042-053>061-031600-
SOUTHWEST WISCONSIN

CITY           SKY/WX    TMP DP  RH WIND       PRES   REMARKS
LA CROSSE      CLOUDY    69  51  52 S13       29.82F
SPARTA         CLOUDY    66  48  50 SW8       29.85F
VIROQUA        CLOUDY    64  50  59 S10       29.86S
BOSCOBEL       CLOUDY    68  51  54 S10       29.86S
PRAIRIE DU CHI CLOUDY    67  50  54 CALM      29.84S
PLATTEVILLE    CLOUDY    64  52  64 S17       29.88S
$$

WIZ056-057-062-063-064-067-068-031600-
SOUTH CENTRAL WISCONSIN

CITY           SKY/WX    TMP DP  RH WIND       PRES   REMARKS
REEDSBURG      CLOUDY    66  50  56 S10G20    29.87S
BARABOO/DELLS  NOT AVBL
LONE ROCK      NOT AVBL
MINERAL POINT  NOT AVBL
MADISON        CLOUDY    65  49  56 S13       29.90S
MIDDLETON      CLOUDY    66  45  46 S13       29.90S
WATERTOWN      PTSUNNY   65  47  52 S9        29.90F
MONROE         CLOUDY    64  52  63 S14       29.91S
JANESVILLE     MOSUNNY   68  46  45 S8        29.92F
$$

WIZ051-052-058>065-066-070>072-031600-
SOUTHEAST WISCONSIN

CITY           SKY/WX    TMP DP  RH WIND       PRES   REMARKS
MILWAUKEE      PTSUNNY   72  45  37 S15       29.93F
WAUKESHA       PTSUNNY   68  43  40 S10       29.95S
MILWAUKEE/TIMM SUNNY     72  39  30 S14G21    29.93F
RACINE         PTSUNNY   73  45  36 S8        29.95F
BURLINGTON     PTSUNNY   68  43  40 SW13      29.94S
KENOSHA        PTSUNNY   72  46  39 S14       29.94F
FOND DU LAC    PTSUNNY   72  46  39 S18G25    29.88F
SHEBOYGAN      PTSUNNY   71  49  45 S13G21    29.91F
WEST BEND      MOSUNNY   70  41  35 S10G16    29.92S
JUNEAU         PTSUNNY   66  47  49 S16       29.91F
$$

LSZ147-162-031600-
LAKE SUPERIOR

STATION/POSITION TIME  TEMP    WIND        PRES    WAVE
                       AIR SEA DIR/SP/G            HT/PER
                 (UTC) (F)     (DEG/KT/KT) (MB)    (FT/S)
W MID LAKE BUOY  1350   42 35  200/  8/ 10 1007.6R   1/ 3
DEVILS ISLAND    1400   58     230/  4/  5 1006.9F
PORT WING        1400   57      60/  4/  8 1006.8
SAXON HARBOR     1440   69     200/ 11/ 14 1006.4S
$$

LMZ867-665-643>646-031600-
LAKE MICHIGAN

STATION/POSITION TIME  TEMP    WIND        PRES    WAVE
                       AIR SEA DIR/SP/G            HT/PER
                 (UTC) (F)     (DEG/KT/KT) (MB)    (FT/S)
CHAMBERS ISLAND  1400   61     190/  8/ 19 1011.9S
NORTHPORT PIER   1400   54     150/  6/ 10 1011.5F
KEWAUNEE LAKESHO 1412   49     180/ 10/ 12 1011.8
SHEBOYGAN LAKESH 1400   57     180/ 17/ 18 1013.5S
PORT WASHINGTON  1440   53     120/  2/  4 1014.2S
ATWATER BUOY     1400   49     170/  8/ 10 1015.0F
MILWAUKEE LAKESH 1400   50     140/  7/  9   N/A
KENOSHA   LAKESH 1400   51     180/ 12/ 15 1014.2S
$$

TC  - TEMPERATURE IN CELSIUS
VSB - VISIBILITY IN STATUTE MILES
WCI - WIND CHILL INDEX
HX  - HEAT INDEX




USA.gov is the U.S. government's official web portal to all federal, state and local government web resources and services.